TimeBST,TemperatureF,Dew PointF,Humidity,Sea Level PressureIn,VisibilityMPH,Wind Direction,Wind SpeedMPH,Gust SpeedMPH,PrecipitationIn,Events,Conditions,WindDirDegrees,DateUTC
12:20 AM,68.0,59.0,73,30.27,-9999.0,SSW,5.8,-,N/A,,Clear,200,2013-07-13 23:20:00
12:50 AM,69,58,61,30.26,7,SSW,6.9,,,,,200,2013-07-13 23:50:00
12:50 AM,68.0,59.0,73,30.27,-9999.0,SSW,5.8,-,N/A,,Clear,200,2013-07-13 23:50:00
1:20 AM,68.0,59.0,73,30.27,-9999.0,SSW,4.6,-,N/A,,Clear,210,2013-07-14 00:20:00
1:50 AM,67,58,67,30.26,8,SSW,4.6,,,,,210,2013-07-14 00:50:00
1:50 AM,68.0,60.8,78,30.27,6.2,SSW,4.6,-,N/A,,Unknown,210,2013-07-14 00:50:00
2:20 AM,66.2,60.8,83,30.24,6.2,South,4.6,-,N/A,,Unknown,170,2013-07-14 01:20:00
2:50 AM,66,58,68,30.26,6,South,5.8,,,,,180,2013-07-14 01:50:00
2:50 AM,66.2,59.0,78,30.24,6.2,South,4.6,-,N/A,,Unknown,170,2013-07-14 01:50:00
3:20 AM,66.2,59.0,78,30.24,-9999.0,South,4.6,-,N/A,,Clear,170,2013-07-14 02:20:00
3:50 AM,65,58,73,30.25,7,South,5.8,,,,,190,2013-07-14 02:50:00
3:50 AM,64.4,59.0,83,30.24,-9999.0,South,4.6,-,N/A,,Clear,180,2013-07-14 02:50:00
4:20 AM,64.4,59.0,83,30.24,6.2,South,3.5,-,N/A,,Unknown,190,2013-07-14 03:20:00
4:50 AM,65,58,71,30.25,7,SW,4.6,,,,,220,2013-07-14 03:50:00
4:50 AM,62.6,59.0,88,30.24,-9999.0,SW,4.6,-,N/A,,Clear,220,2013-07-14 03:50:00
5:20 AM,62.6,59.0,88,30.24,6.2,SSW,4.6,-,N/A,,Partly Cloudy,200,2013-07-14 04:20:00
5:50 AM,65,59,74,30.25,7,SW,3.5,,,,,220,2013-07-14 04:50:00
5:50 AM,62.6,59.0,88,30.24,-9999.0,SSW,4.6,-,N/A,,Clear,210,2013-07-14 04:50:00
6:20 AM,64.4,60.8,88,30.24,-9999.0,WSW,5.8,-,N/A,,Clear,240,2013-07-14 05:20:00
6:50 AM,65,59,76,30.25,7,West,4.6,,,,,260,2013-07-14 05:50:00
6:50 AM,64.4,60.8,88,30.24,-9999.0,West,4.6,-,N/A,,Clear,260,2013-07-14 05:50:00
7:20 AM,66.2,60.8,83,30.24,-9999.0,West,4.6,-,N/A,,Clear,280,2013-07-14 06:20:00
7:50 AM,68,60,70,30.26,8,WNW,3.5,,,,,290,2013-07-14 06:50:00
7:50 AM,68.0,60.8,78,30.24,-9999.0,Variable,3.5,-,N/A,,Clear,0,2013-07-14 06:50:00
8:20 AM,69.8,62.6,78,30.24,-9999.0,NNW,4.6,-,N/A,,Clear,330,2013-07-14 07:20:00
8:50 AM,71,61,62,30.26,8,NW,5.8,,,,,320,2013-07-14 07:50:00
8:50 AM,71.6,62.6,73,30.24,-9999.0,NW,4.6,-,N/A,,Clear,320,2013-07-14 07:50:00
9:20 AM,73.4,62.6,69,30.24,-9999.0,Variable,5.8,-,N/A,,Clear,0,2013-07-14 08:20:00
9:50 AM,75,62,55,30.26,12,NNW,11.2,,,,,330,2013-07-14 08:50:00
9:50 AM,73.4,62.6,69,30.24,-9999.0,NNW,4.6,-,N/A,,Clear,330,2013-07-14 08:50:00
10:20 AM,75.2,62.6,65,30.24,-9999.0,North,5.8,-,N/A,,Clear,10,2013-07-14 09:20:00
10:50 AM,77,60,47,30.25,12,North,5.8,,,,,0,2013-07-14 09:50:00
10:50 AM,77.0,62.6,61,30.24,-9999.0,NW,5.8,-,N/A,,Clear,310,2013-07-14 09:50:00
11:20 AM,78.8,60.8,54,30.24,-9999.0,NW,6.9,-,N/A,,Clear,310,2013-07-14 10:20:00
11:50 AM,80,58,37,30.25,19,NW,5.8,,,,,320,2013-07-14 10:50:00
11:50 AM,78.8,59.0,51,30.24,-9999.0,NNW,6.9,-,N/A,,Clear,330,2013-07-14 10:50:00
12:20 PM,80.6,57.2,45,30.24,6.2,NNW,6.9,-,N/A,,Partly Cloudy,330,2013-07-14 11:20:00
12:50 PM,80,57,34,30.23,17,NW,5.8,,,,,320,2013-07-14 11:50:00
12:50 PM,82.4,57.2,42,30.24,-9999.0,Variable,5.8,-,N/A,,Clear,0,2013-07-14 11:50:00
1:20 PM,82.4,55.4,39,30.24,-9999.0,NW,8.1,-,N/A,,Clear,310,2013-07-14 12:20:00
1:50 PM,83,55,28,30.22,22,WNW,9.2,,,,,300,2013-07-14 12:50:00
1:50 PM,82.4,55.4,39,30.21,-9999.0,NW,8.1,-,N/A,,Clear,310,2013-07-14 12:50:00
2:20 PM,82.4,55.4,39,30.21,-9999.0,WNW,9.2,-,N/A,,Clear,300,2013-07-14 13:20:00
2:50 PM,85,56,27,30.22,17,NW,8.1,,,,,310,2013-07-14 13:50:00
2:50 PM,84.2,55.4,37,30.21,-9999.0,NNW,8.1,-,N/A,,Clear,330,2013-07-14 13:50:00
3:20 PM,84.2,55.4,37,30.21,-9999.0,NW,10.4,-,N/A,,Clear,320,2013-07-14 14:20:00
3:50 PM,86,57,27,30.21,19,NW,8.1,,,,Mostly Cloudy,320,2013-07-14 14:50:00
3:50 PM,84.2,53.6,35,30.21,-9999.0,NW,8.1,-,N/A,,Clear,310,2013-07-14 14:50:00
4:20 PM,84.2,53.6,35,30.21,-9999.0,NW,10.4,-,N/A,,Clear,320,2013-07-14 15:20:00
4:50 PM,84.2,53.6,35,30.21,-9999.0,NW,10.4,-,N/A,,Clear,320,2013-07-14 15:50:00
5:20 PM,84.2,53.6,35,30.18,-9999.0,NW,10.4,-,N/A,,Clear,310,2013-07-14 16:20:00
5:50 PM,85,53,23,30.19,22,WNW,11.5,,,,,300,2013-07-14 16:50:00
5:50 PM,84.2,51.8,33,30.18,-9999.0,WNW,11.5,-,N/A,,Clear,300,2013-07-14 16:50:00
6:20 PM,82.4,51.8,35,30.18,-9999.0,NW,8.1,-,N/A,,Clear,320,2013-07-14 17:20:00
6:50 PM,82,53,27,30.19,19,NNW,8.1,,,,,330,2013-07-14 17:50:00
6:50 PM,82.4,51.8,35,30.18,-9999.0,NNW,8.1,-,N/A,,Clear,330,2013-07-14 17:50:00
7:20 PM,80.6,53.6,39,30.18,-9999.0,NNE,6.9,-,N/A,,Clear,30,2013-07-14 18:20:00
7:50 PM,81,51,25,30.19,28,NNE,5.8,,,,,20,2013-07-14 18:50:00
7:50 PM,80.6,51.8,37,30.18,-9999.0,NNE,5.8,-,N/A,,Clear,30,2013-07-14 18:50:00
8:20 PM,78.8,51.8,39,30.18,-9999.0,North,5.8,-,N/A,,Clear,360,2013-07-14 19:20:00
8:50 PM,79,51,27,30.19,25,NNE,5.8,,,,Scattered Clouds,20,2013-07-14 19:50:00
8:50 PM,78.8,51.8,39,30.18,-9999.0,North,4.6,-,N/A,,Clear,360,2013-07-14 19:50:00
9:20 PM,78.8,51.8,39,30.18,-9999.0,NNE,4.6,-,N/A,,Clear,20,2013-07-14 20:20:00
9:50 PM,78,54,33,30.20,15,NNE,4.6,,,,Mostly Cloudy,30,2013-07-14 20:50:00
9:50 PM,77.0,53.6,44,30.18,-9999.0,NE,4.6,-,N/A,,Clear,50,2013-07-14 20:50:00
10:20 PM,77.0,57.2,50,30.21,-9999.0,NE,5.8,-,N/A,,Clear,50,2013-07-14 21:20:00
10:50 PM,76,56,40,30.21,14,NE,5.8,,,,Mostly Cloudy,50,2013-07-14 21:50:00
10:50 PM,75.2,57.2,53,30.21,-9999.0,NE,4.6,-,N/A,,Clear,40,2013-07-14 21:50:00
11:20 PM,75.2,57.2,53,30.21,-9999.0,Variable,3.5,-,N/A,,Clear,0,2013-07-14 22:20:00
11:50 PM,75,56,41,30.21,22,NE,3.5,,,,Mostly Cloudy,40,2013-07-14 22:50:00
11:50 PM,73.4,57.2,57,30.21,-9999.0,NE,3.5,-,N/A,,Clear,40,2013-07-14 22:50:00